CZ-2C DEB, 40288

Orbit data source: Space-Track

CZ-2C DEB, 40288 is space debris in SSO originally from a launch on Mon, 27 Oct 2014 UTC launched from the Jiuquan Satellite Launch Center, China (JSC). Debris objects in space refer to the collection of defunct objects orbiting the Earth. Examples of debris include non-operational satellites, rocket bodies, and fragments generated from explosions, collisions, or faulty payload assembly.

Loading next visibility...
Identifier
40288, 2014-066C
Orbit
SSO
Country
Flag of CNCN / PRC
Related business
Manufacturer
CALT
Mission
Spacecraft
Bus & Motor
Unknown
Mass
1 kg wet, 1 kg dry
Launch date (UTC)
2014-10-27 (11 years ago)
Launch vehicle
Unknown
Launch site
Jiuquan Satellite Launch Center, China (JSC)
Object type
Payload
Rocket body
Debris
Shape & HBR
Cone, 0.1 m
Radar Cross Section
0.025 m², Small (<0.1 m²)

Expand to show TLE details & history
Last TLE update: 5 hours ago

TLE from 5 hours ago
0 CZ-2C DEB
1 40288U 14066C   25304.26721166  .00005564  00000-0  18495-2 0  9993
2 40288  97.9478  78.4398 0162107 169.4133 191.0533 14.30847958571487
Epoch: 2025-10-31T06:24Z
TLE epoch observation values (Epoch: 2025-10-31T06:24:47.087Z)
Latitude
-0.00003°
Longitude
-57.57049°
Altitude
905.97 km
Speed
7.34 km/s
True Right ascension
05h 13m 45s
True Declination
0° 00' 00"
Sunlit
Object was in full shadow at epoch
Visualization orbit readout
Latitude
Unknown
Longitude
Unknown
Altitude
Unknown
Speed
Unknown
Apparent Right ascension
Unknown
Apparent Declination
Unknown
Sunlit
N/A
Visualization observer readout
Local Sidereal Time
06:48:42
Azimuth
Unknown
Elevation
Unknown
Doppler factor
Unknown
Orbital elements
Apogee altitude
902.141 km
Perigee altitude
669.87 km
Semi-major axis
7,164.143 km
Eccentricity
0.01621
Inclination
97.9478°
RAAN
78.4398°
Arg. of periapsis
169.4133°
True anomaly
190.70411°
Mean anomaly
191.0533°
Eccentric anomaly
190.87802°
Mean motion
3.57929 °/min
Orbital period
100.58 mins
BSTAR
0.0018495
Loading maneuver chart data...
Computing Atmospheric mass density...
Loading historical data...
Loading historical data...
Loading historical data...
Loading historical data...
Loading historical data...
Loading historical data...
Loading historical data...
Other satellites on launch #66 in the year 2014 (2014-10-27 UTC)

Documentation

Showing up to 5 results
|